FENGYUN 1C DEB

Satellite information

Favourite Embed

Satellite Type and Status

DEBRISIN ORBIT

Key statistics

Satellite FENGYUN 1C DEB at a glance.

Uptime

9715

Days in orbit

Revolutions

≈ 14.0

Per day

Orbit

SSO

Sun Synchronous Orbit

Inclination

98.4

Latest

Satellite identification and parameters

Extended collection of information and parameters for FENGYUN 1C DEB.

Object identification

Identified? True

Debris? True

Object name: FENGYUN 1C DEB

International designator: 1999-025EFY

Object number (NORAD): 37406

Object ID (CCSDS): 37406

Country: PEOPLES REPUBLIC OF CHINA (PRC)

Current information (Y/N): Y

RCS size: SMALL

Orbital parameters

Period: 102.543 minutes

Inclination: 98.4429 deg

SMA: 7257.14 km

Apoapsis: 987.632 km

Periapsis: 770.378 km

RAAN: 217.1877 deg

Eccentricy: 0.0149683

Argument of periapsis: 271.7264 deg

Mean anomaly: 103.1759 deg

Mean motion: 14.04282623 rev/day

Mean motion (dot): 0.00002958 rev/day2

B* drag term: 0.0017076 1/REarth

Two-line elements (TLE)

Creation date: Dec. 11, 2025, 7:36 a.m.

Reference frame: TEME

Reference center: EARTH

Epoch: Dec. 10, 2025, 10:08 p.m. UTC

TLE line 0: 0 FENGYUN 1C DEB

TLE line 1: 1 37406U 99025EFY 25344.92242594 .00002958 00000-0 17076-2 0 9997

TLE line 2: 2 37406 98.4429 217.1877 0149683 271.7264 103.1759 14.04282623632077

Live tracking on map

Real-time ground track for satellite FENGYUN 1C DEB.

In-orbit conjunctions

A list of the most updated potential collisions computed for object FENGYUN 1C DEB.

Target Orbit TCA Probability of collision Miss distance Type
SL-6 R/B SSO 2025-05-18 14:48:42 0.0001347193 352.0 (m) ROCKET BODY

Associated space launch

Chinese polar orbiting meteorological satellite

FENGYUN 1C DEB was lifted into orbit during the mission ‘Long March 4B | Feng Yun 1C’, on board a Long March 4B space rocket.

The launch took place on May 10, 1999, 1:33 a.m. from Launch Complex 7.

For more information about the launch, click the button.

Launch to space Long March 4B | Feng Yun 1C
Long March 4B | Feng Yun 1C

Agency: N/A

Status: Launch Successful

Launch date: May 10, 1999, 1:33 a.m. UTC

Rocket: Long March 4B

Launch pad: Launch Complex 7

Location: Taiyuan Satellite Launch Center, People's Republic of China

...

Latest news about this satellite

There are no fresh news available about this satellite. Check back as we update our databases every day.


Newsletter sign-up

Weekly statistics, charts and insights to help you stay on top of the space industry.